SES-15 (42709 NORAD) Tracking and Keplerian Element Data

This shows tracking and keplerian element data for the satellite.

Feedback or suggestion? Click here.




ElementValue
Catalog42709
NameSES-15
Epoch Orbit563
Epoch Day354.0264072
Epoch Year2025
RAAN344.0457
Inclination0.0179
Eccentricity5.75E-05
Argument of Perigee201.4155
Mean Anonmoly143.7651
Mean Motion1.00274584
Decay Rate8.3E-07
L11 42709U 17026A 25354.02640720 .00000083 00000+0 00000+0 0 9997
L22 42709 0.0179 344.0457 0000575 201.4155 143.7651 1.00274584 5635



Live tracking and technical data element details for SES-15 (NORAD 42709). SES-15 can be tracked NOW for your location showing map with azimuth and elevation plus other details from your city location.







IsCatalogInMostPopularTable: catalog: 42709, numindb: 821
Update: records affected: 1



GetName: 42709 SES-15

Hit Count: updated at: Thu, 16 Apr 2026 04:57:15 GMT